Flag for Hungary Weather past 2 weeks in Győr, Hungary

Now
44 °F

Quite cool.


Feels Like: 44 °F
Forecast: 46 / 71 °F
Wind: 2 mph from Northwest

Location: Gyor


UV Index: 0 (Low)

Visibility: N/A


Pressure: 29.93 "Hg

Humidity: 73%

Dew point: 36 °F

Location of GyőrLocation

Historic Weather in Győr

°F

Győr temperature yesterday

Maximum temperature yesterday: 60 °F (at 6:00 PM)
Minimum temperature yesterday: 38 °F (at 5:00 AM)
Average temperature yesterday: 47 °F

Past Weeks' High & Low Weather Summary

 TemperatureHumidityPressure
High76 °F (Apr 8, 5:00 PM)100% (Apr 7, 8:00 AM)30.23 "Hg (Apr 7, 8:00 AM)
Low35 °F (Apr 13, 6:00 AM)35% (Apr 8, 5:00 PM)29.71 "Hg (Apr 3, 6:00 PM)
Average52 °F71%30.00 "Hg
* Reported Apr 3 3:00 AM — Apr 18 3:00 AM, Győr, Weather by CustomWeather, © 2014

Note: Actual official high and low records may vary slightly from our data, if they occured in-between our weather recording intervals... More about our weather records

Advertising

Historic Weather Conditions — Data for Previous 24 hours

 ConditionsComfort  
Time TempWeatherWind HumidityBarometerVisibility
3:00 AM
Apr 18
46 °FCool.2 mph71%29.94 "HgN/A
2:00 AM48 °FCool.1 mph70%29.96 "HgN/A
6:00 PM
Apr 17
60 °FRefreshingly cool.3 mph38%30.01 "HgN/A
5:00 PM58 °FRefreshingly cool.5 mph37%30.02 "HgN/A
4:00 PM57 °FRefreshingly cool.2 mph42%30.04 "HgN/A
3:00 PM57 °FRefreshingly cool.3 mph40%30.05 "HgN/A
2:00 PM56 °FRefreshingly cool.5 mph42%30.07 "HgN/A
1:00 PM54 °FCool.5 mph44%30.10 "HgN/A
12:00 PM53 °FCool.5 mph47%30.12 "HgN/A
11:00 AM53 °FCool.5 mph49%30.13 "HgN/A
10:00 AM50 °FCool.5 mph54%30.14 "HgN/A
9:00 AM45 °FCool.3 mph64%30.15 "HgN/A
8:00 AM41 °FQuite cool.5 mph73%30.15 "HgN/A
7:00 AM39 °FChilly.3 mph79%30.18 "HgN/A
6:00 AM39 °FChilly.5 mph78%30.16 "HgN/A
5:00 AM38 °FChilly.3 mph80%30.17 "HgN/A
4:00 AM39 °FChilly.3 mph78%30.19 "HgN/A
Weather by CustomWeather, © 2014

See weather overview